STARLINK-1656, 46353

Orbit data source: Space-Track

STARLINK-1656, 46353 is a payload satellite owned by SpaceX/Seattle (US) in LEO that was launched on Thu, 03 Sep 2020 UTC via an FALCON 9 launch vehicle from the Air Force Eastern Test Range (AFETR). Payload-class satellites include a variety of spacecraft equipped with specific instruments for various scientific and technological missions. These include communications satellites like Starlink; space stations such as the ISS; scientific satellites like the Hubble; Earth observation satellites from companies like Planet Labs, Umbra, and HawkEye 360; GPS; miniature CubeSats for education and research; and military/defense satellites.

Loading next visibility...
Identifier
46353, 2020-062AE
Orbit
LEO
Country
Flag of USUS
Related business
Manufacturer
SpaceX/Seattle
Mission
Partially operational Commercial Communications
Bus & Motor
STARLINK, Unknown motor
Mass
260 kg wet, ~248 kg dry
Launch date (UTC)
2020-09-03 (6 years ago)
Launch vehicle
FALCON 9
Launch site
Air Force Eastern Test Range (AFETR)
Object type
Payload
Rocket body
Debris
Shape & HBR
Box + 1 Pan, 10.1 m
Radar Cross Section
13.562 m², Large (>1 m²)

Expand to show TLE details & history
Last TLE update: 8 hours ago

TLE from 8 hours ago
0 STARLINK-1656
1 46353U 20062AE  26124.83335647  .00167735  00000-0  17486-2 0  9992
2 46353  53.0429  86.9703 0007731  61.2744 103.0971 15.63466359  5982
Epoch: 2026-05-04T20:00Z
TLE epoch observation values (Epoch: 2026-05-04T20:00:01.999Z)
Latitude
12.36086°
Longitude
94.80829°
Altitude
378.974 km
Speed
7.684 km/s
True Right ascension
17h 10m 08s
True Declination
12° 17' 06"
Sunlit
Object was in full shadow at epoch
Visualization orbit readout
Latitude
Unknown
Longitude
Unknown
Altitude
Unknown
Speed
Unknown
Apparent Right ascension
Unknown
Apparent Declination
Unknown
Sunlit
N/A
Visualization observer readout
Local Sidereal Time
12:07:37
Azimuth
Unknown
Elevation
Unknown
Doppler factor
Unknown
Orbital elements
Apogee altitude
383.155 km
Perigee altitude
372.709 km
Semi-major axis
6,756.069 km
Eccentricity
0.00077
Inclination
53.0429°
RAAN
86.9703°
Arg. of periapsis
61.2744°
True anomaly
103.18337°
Mean anomaly
103.0971°
Eccentric anomaly
103.14024°
Mean motion
3.90843 °/min
Orbital period
92.11 mins
BSTAR
0.0017486
Loading maneuver chart data...
Computing Atmospheric mass density...
Loading historical data...
Loading historical data...
Loading historical data...
Loading historical data...
Loading historical data...
Loading historical data...
Loading historical data...

Documentation

Showing up to 5 results
|